sat.trackr.live / text

‹ back to catalog

EOS-4

NORAD 51656 · 2022-013A

PAYLOAD ACTIVE UNKNOWN

§ Identity

Operator
Country
IND
Launch date
2022-02-14
Launch site
SRILR
Launch vehicle
Mass (kg)
RCS (m²)

External: N2YO · Heavens-Above · Gunter

§ Orbital elements

Epoch: 2026-05-25T06:40:28.120800Z

Period
95.19 min
Inclination
97.5116°
Eccentricity
0.0001744
Mean motion
15.12721980 rev/d
Perigee alt
526.7 km
Apogee alt
529.1 km
Semi-major
6,906.0 km
B*
6.0354e-5
RAAN
152.2781°
Arg perigee
96.3057°
Mean anomaly
263.8373°
Rev number
23,602

§ Raw data

EOS-41 51656U 22013A   26145.27810325  .00000993  00000+0  60354-4 0  99992 51656  97.5116 152.2781 0001744  96.3057 263.8373 15.12721980236027

JSON: /api/v1/satellites/51656 · /tle

For live sub-satellite position, see the globe view (requires WebGL).

§ Visibility from observer

Set your observer location to see the next 7 days of passes ≥ 10°. The values pass through the URL so the page stays shareable.

No JS? Fill the form by hand. The geolocation button needs JavaScript.